Change the Weather History Date:

Sunday, May 4, 2014

  Actual Average (KTLH) Record (KTLH)
Temperature  
Mean Temperature 68 °F 71 °F  
Max Temperature 84 °F 84 °F 96 °F (1930)
Min Temperature 51 °F 57 °F 34 °F (1971)
Degree Days  
Heating Degree Days 0    
Month to date heating degree days  
Since 1 July heating degree days  
Cooling Degree Days 2    
Month to date cooling degree days  
Year to date cooling degree days  
Growing Degree Days 18 (Base 50)    
Moisture  
Dew Point 53 °F    
Average Humidity 71    
Maximum Humidity 100    
Minimum Humidity 29    
Precipitation  
Precipitation 0.00 in 0.08 in 1.75 in (1974)
Month to date precipitation 0.33  
Year to date precipitation 18.52  
Sea Level Pressure  
Sea Level Pressure 30.10 in    
Wind  
Wind Speed 1 mph (WNW)    
Max Wind Speed 7 mph    
Max Gust Speed -    
Visibility 10 miles    
Events      
T = Trace of Precipitation, MM = Missing Value Source: NWS Daily Summary

Daily Weather History Graph

Daily Weather History Graph

Search for Another Location

Airport or City:

Trip Planner

Search our weather history database for the weather conditions in past years. The results will help you decide how hot, cold, wet, or windy it might be!

Date:

Astronomy

May. 04, 2014 Rise Set
Actual Time 6:51 AM EDT 8:18 PM EDT
Civil Twilight 6:26 AM EDT 8:44 PM EDT
Nautical Twilight 5:55 AM EDT 9:15 PM EDT
Astronomical Twilight 5:23 AM EDT 9:47 PM EDT
Moon 11:16 AM EDT (5/4) 12:21 AM EDT (5/4)
Length of Visible Light 14h 18m
Length of Day
13h 26m
Waxing Crescent, 27% of the Moon is Illuminated
May 4
Waxing Crescent
May 6
First Quarter
May 14
Full
May 21
Last Quarter
May 28
New

Hourly Weather History & Observations

Time (EDT) Temp. Heat Index Dew Point Humidity Pressure Visibility Wind Dir Wind Speed Gust Speed Precip Events Conditions
12:15 AM 55.4 °F - 53.6 °F 94% 30.11 in 10.0 mi Calm Calm - N/A   Clear
12:35 AM 53.6 °F - 53.6 °F 100% 30.11 in 10.0 mi Calm Calm - N/A   Clear
12:55 AM 53.6 °F - 51.8 °F 94% 30.10 in 10.0 mi Calm Calm - N/A   Clear
1:15 AM 53.6 °F - 51.8 °F 94% 30.10 in 10.0 mi Calm Calm - N/A   Clear
1:35 AM 53.6 °F - 50.0 °F 88% 30.10 in 10.0 mi Calm Calm - N/A   Clear
1:55 AM 53.6 °F - 50.0 °F 88% 30.10 in 10.0 mi West 3.5 mph - N/A   Clear
2:15 AM 53.6 °F - 50.0 °F 88% 30.09 in 10.0 mi Calm Calm - N/A   Clear
2:35 AM 53.6 °F - 50.0 °F 88% 30.09 in 10.0 mi Calm Calm - N/A   Clear
2:55 AM 51.8 °F - 50.0 °F 94% 30.09 in 10.0 mi West 4.6 mph - N/A   Clear
3:15 AM 51.8 °F - 50.0 °F 94% 30.09 in 10.0 mi Calm Calm - N/A   Clear
3:35 AM 51.8 °F - 50.0 °F 94% 30.09 in 10.0 mi Calm Calm - N/A   Clear
3:55 AM 51.8 °F - 50.0 °F 94% 30.08 in 10.0 mi Calm Calm - N/A   Clear
4:35 AM 51.8 °F - 50.0 °F 94% 30.09 in 10.0 mi Calm Calm - N/A   Clear
4:55 AM 51.8 °F - 50.0 °F 94% 30.09 in 10.0 mi Calm Calm - N/A   Clear
5:15 AM 51.8 °F - 50.0 °F 94% 30.09 in 10.0 mi Calm Calm - N/A   Clear
5:35 AM 51.8 °F - 50.0 °F 94% 30.10 in 10.0 mi Calm Calm - N/A   Clear
6:15 AM 51.8 °F - 50.0 °F 94% 30.11 in 10.0 mi Calm Calm - N/A   Clear
6:55 AM 51.8 °F - 50.0 °F 94% 30.13 in 10.0 mi Calm Calm - N/A   Clear
7:15 AM 51.8 °F - 50.0 °F 94% 30.13 in 8.0 mi Calm Calm - N/A   Clear
7:35 AM 53.6 °F - 51.8 °F 94% 30.14 in 10.0 mi Calm Calm - N/A   Clear
7:55 AM 57.2 °F - 53.6 °F 88% 30.14 in 10.0 mi Calm Calm - N/A   Clear
8:15 AM 59.0 °F - 55.4 °F 88% 30.14 in 10.0 mi Calm Calm - N/A   Clear
8:35 AM 62.6 °F - 55.4 °F 77% 30.14 in 10.0 mi WNW 3.5 mph - N/A   Clear
9:15 AM 68.0 °F - 55.4 °F 64% 30.15 in 10.0 mi Calm Calm - N/A   Clear
9:35 AM 69.8 °F - 55.4 °F 60% 30.15 in 10.0 mi WNW 5.8 mph - N/A   Clear
9:55 AM 71.6 °F - 53.6 °F 53% 30.16 in 10.0 mi WNW 4.6 mph - N/A   Clear
10:35 AM 75.2 °F - 53.6 °F 47% 30.15 in 10.0 mi NW 6.9 mph - N/A   Clear
11:15 AM 77.0 °F - 51.8 °F 41% 30.15 in 10.0 mi North 4.6 mph - N/A   Clear
12:35 PM 80.6 °F - 50.0 °F 34% 30.14 in 10.0 mi Calm Calm - N/A   Clear
12:55 PM 80.6 °F - 51.8 °F 37% 30.14 in 10.0 mi East 3.5 mph - N/A   Clear
3:35 PM 84.2 °F - 48.2 °F 29% 30.08 in 10.0 mi WNW 6.9 mph - N/A   Clear
4:15 PM 84.2 °F - 48.2 °F 29% 30.06 in 10.0 mi West 5.8 mph - N/A   Clear
4:55 PM 84.2 °F - 50.0 °F 30% 30.06 in 10.0 mi SW 3.5 mph - N/A   Clear
5:15 PM 84.2 °F - 50.0 °F 30% 30.06 in 10.0 mi NW 6.9 mph - N/A   Clear
5:55 PM 84.2 °F - 50.0 °F 30% 30.05 in 10.0 mi West 6.9 mph - N/A   Clear
6:15 PM 84.2 °F - 48.2 °F 29% 30.05 in 10.0 mi Calm Calm - N/A   Clear
6:35 PM 84.2 °F - 51.8 °F 33% 30.05 in 10.0 mi NW 4.6 mph - N/A   Clear
6:55 PM 82.4 °F - 50.0 °F 32% 30.05 in 10.0 mi Calm Calm - N/A   Clear
7:15 PM 80.6 °F 80.3 °F 53.6 °F 39% 30.06 in 10.0 mi Calm Calm - N/A   Clear
7:35 PM 77.0 °F - 55.4 °F 47% 30.06 in 10.0 mi Calm Calm - N/A   Clear
7:55 PM 75.2 °F - 57.2 °F 53% 30.06 in 10.0 mi Calm Calm - N/A   Clear
8:15 PM 71.6 °F - 57.2 °F 60% 30.06 in 10.0 mi Calm Calm - N/A   Clear
8:35 PM 69.8 °F - 59.0 °F 68% 30.07 in 10.0 mi Calm Calm - N/A   Clear
8:55 PM 68.0 °F - 59.0 °F 73% 30.08 in 10.0 mi Calm Calm - N/A   Clear
9:15 PM 66.2 °F - 59.0 °F 78% 30.08 in 10.0 mi Calm Calm - N/A   Clear
9:35 PM 64.4 °F - 59.0 °F 83% 30.08 in 10.0 mi Calm Calm - N/A   Clear
9:55 PM 64.4 °F - 59.0 °F 83% 30.09 in 10.0 mi Calm Calm - N/A   Clear
10:15 PM 64.4 °F - 59.0 °F 83% 30.10 in 10.0 mi WSW 6.9 mph - N/A   Clear
11:15 PM 64.4 °F - 57.2 °F 77% 30.11 in 10.0 mi WSW 4.6 mph - N/A   Clear
11:35 PM 62.6 °F - 59.0 °F 88% 30.11 in 10.0 mi Calm Calm - N/A   Clear
11:55 PM 60.8 °F - 59.0 °F 94% 30.11 in 10.0 mi Calm Calm - N/A   Clear